Location: Donaueschingen
(47.9515°N, 8.4976°E)
Time: 01:31:46
(UTC+01:00)

ISS - Visible Passes

Search period start: 08 December 2021 00:00
Search period end: 18 December 2021 00:00
Orbit: 417 x 422 km, 51.6° (Epoch: 07 December)

Date Brightness Start Highest point End Pass type
(mag) Time Alt. Az. Time Alt. Az. Time Alt. Az.
08 Dec -1.0 18:04:11 10° W 18:06:45 20° SW 18:09:19 10° S visible
09 Dec -1.6 17:16:29 10° W 17:19:30 30° SW 17:22:31 10° SSE visible
11 Dec -0.3 17:19:29 10° WSW 17:21:09 13° SW 17:22:49 10° SSW visible
